Location: Nelson
(41.2830°S, 173.2830°E)
Time: 18:39:29
(UTC+12:00)

Cosmos 1809 Rocket - Pass Details

Date: 14 May 2021
Orbit: 942 x 962 km, 82.5° (Epoch: 19 June)

Event Time Altitude Azimuth Distance (km) Brightness Sun altitude
Rises 18:53:42 0° 2° (N) 3,637 7.6 -17.8°
Reaches altitude 10° 18:56:12 10° 5° (N) 2,698 6.9 -18.3°
Maximum altitude 19:02:19 68° 86° (E) 1,044 4.4 -19.4°
Drops below altitude 10° 19:08:31 10° 167° (SSE) 2,724 6.6 -20.6°
Sets 19:11:03 0° 169° (S) 3,675 7.3 -21.0°
